Location: Unspecified
(0.0000°N, 0.0000°E)
Time: 18:35:56
(UTC+01:00)

Ariane H10-3 - Visible Passes

Search period start: 03 December 2016 00:00
Search period end: 13 December 2016 00:00
Orbit: 257 x 20479 km, 7.2° (Epoch: 01 December)

Date Brightness Start Highest point End Pass type
(mag) Time Alt. Az. Time Alt. Az. Time Alt. Az.
03 Dec 7.8 00:17:20 10° WNW 00:58:02 76° ENE 05:11:27 10° E visible
04 Dec 7.7 00:14:51 10° WNW 00:55:25 75° ENE 05:08:39 10° E visible
05 Dec 7.7 00:12:15 10° WNW 00:52:41 75° ENE 05:05:42 10° E visible
06 Dec 7.6 00:09:32 10° WNW 00:49:50 74° ENE 05:02:38 10° E visible
07 Dec 7.6 00:06:43 10° WNW 00:46:53 74° ENE 04:59:24 10° E visible
08 Dec 7.6 00:03:47 10° WNW 00:43:47 73° ENE 04:56:02 10° E visible
09 Dec 7.5 00:00:44 10° WNW 00:40:35 73° ENE 04:52:32 10° E visible
09 Dec 7.5 23:57:35 10° WNW 00:37:16 72° ENE 04:48:52 10° E visible
10 Dec 7.4 23:54:19 10° WNW 00:33:50 72° E 04:45:04 10° E visible
11 Dec 7.4 23:50:56 10° WNW 00:30:17 71° E 04:41:07 10° E visible
